Location: San Vito
(41.8833°N, 12.9833°E)
Time: 21:00:12
(UTC+00:00)

Cosmos 2016 Rocket - Pass Details

Date: 17 November 2019
Orbit: 947 x 1000 km, 83.0° (Epoch: 14 December)

Event Time Altitude Azimuth Distance (km) Brightness Sun altitude
Rises 04:18:44 0° 181° (S) 3,646 7.1 -18.7°
Reaches altitude 10° 04:21:13 10° 180° (S) 2,711 6.4 -18.3°
Maximum altitude 04:27:26 78° 95° (E) 1,010 4.2 -17.1°
Drops below altitude 10° 04:33:46 10° 10° (N) 2,764 6.4 -16.0°
Sets 04:36:19 0° 9° (N) 3,722 7.0 -15.5°
